Time,TemperatureF,DewpointF,PressureIn,WindDirection,WindDirectionDegrees,WindSpeedMPH,WindSpeedGustMPH,Humidity,HourlyPrecipIn,Conditions,Clouds,dailyrainin,SoftwareType,DateUTC
2013-01-08 00:02:00,14.8,13.1,30.31,West,265,0.0,1.0,93,0.00,,CLR,0.02,VWS V14.01,2013-01-08 05:02:00,
2013-01-08 00:03:00,14.8,13.1,30.31,West,265,0.0,1.0,93,0.00,,CLR,0.02,VWS V14.01,2013-01-08 05:03:00,
2013-01-08 00:08:00,14.3,12.6,30.31,West,264,2.0,2.0,93,0.00,,CLR,0.00,VWS V14.01,2013-01-08 05:08:00,
2013-01-08 00:13:00,14.8,13.1,30.31,West,265,1.0,3.0,93,0.00,,CLR,0.00,VWS V14.01,2013-01-08 05:13:00,
2013-01-08 00:18:00,14.6,12.9,30.31,West,264,0.0,1.0,93,0.00,,CLR,0.00,VWS V14.01,2013-01-08 05:18:00,
2013-01-08 00:23:00,14.3,12.6,30.29,West,265,1.0,2.0,93,0.00,,CLR,0.00,VWS V14.01,2013-01-08 05:23:00,
2013-01-08 00:28:00,13.8,11.9,30.29,West,265,2.0,2.0,92,0.00,,CLR,0.00,VWS V14.01,2013-01-08 05:28:00,
2013-01-08 00:33:00,14.1,12.4,30.29,West,265,2.0,2.0,93,0.00,,CLR,0.00,VWS V14.01,2013-01-08 05:33:00,
2013-01-08 00:38:00,14.4,12.8,30.30,West,264,0.0,2.0,93,0.00,,CLR,0.00,VWS V14.01,2013-01-08 05:38:00,
2013-01-08 00:43:00,14.5,12.9,30.30,West,265,2.0,2.0,93,0.00,,CLR,0.00,VWS V14.01,2013-01-08 05:43:00,
2013-01-08 00:48:00,14.6,12.9,30.30,West,264,3.0,3.0,93,0.00,,CLR,0.00,VWS V14.01,2013-01-08 05:48:00,
2013-01-08 00:53:00,14.5,12.9,30.30,West,265,2.0,3.0,93,0.00,,CLR,0.00,VWS V14.01,2013-01-08 05:53:00,
2013-01-08 00:58:00,15.2,13.5,30.30,West,264,2.0,3.0,93,0.00,,CLR,0.00,VWS V14.01,2013-01-08 05:58:00,
2013-01-08 01:03:00,15.3,13.6,30.30,West,265,2.0,3.0,93,0.00,,CLR,0.00,VWS V14.01,2013-01-08 06:03:00,
2013-01-08 01:08:00,14.8,13.1,30.29,West,264,0.0,0.0,93,0.00,,CLR,0.00,VWS V14.01,2013-01-08 06:08:00,
2013-01-08 01:13:00,14.2,12.6,30.29,West,264,1.0,1.0,93,0.00,,CLR,0.00,VWS V14.01,2013-01-08 06:13:00,
2013-01-08 01:18:00,14.8,13.1,30.29,West,265,0.0,0.0,93,0.00,,CLR,0.00,VWS V14.01,2013-01-08 06:18:00,
2013-01-08 01:23:00,15.1,13.4,30.29,West,264,1.0,3.0,93,0.00,,CLR,0.00,VWS V14.01,2013-01-08 06:23:00,
2013-01-08 01:28:00,16.0,14.3,30.29,West,265,0.0,2.0,93,0.00,,CLR,0.00,VWS V14.01,2013-01-08 06:28:00,
2013-01-08 01:33:00,15.9,14.2,30.29,West,265,0.0,2.0,93,0.00,,CLR,0.00,VWS V14.01,2013-01-08 06:33:00,
2013-01-08 01:38:00,16.3,14.6,30.28,West,265,0.0,1.0,93,0.00,,CLR,0.00,VWS V14.01,2013-01-08 06:38:00,
2013-01-08 01:43:00,16.6,14.9,30.28,West,265,1.0,1.0,93,0.00,,CLR,0.00,VWS V14.01,2013-01-08 06:43:00,
2013-01-08 01:48:00,15.4,13.7,30.28,West,265,1.0,2.0,93,0.00,,CLR,0.00,VWS V14.01,2013-01-08 06:48:00,
2013-01-08 01:53:00,13.4,11.5,30.28,West,264,0.0,2.0,92,0.00,,CLR,0.00,VWS V14.01,2013-01-08 06:53:00,
2013-01-08 01:58:00,13.7,12.1,30.28,West,264,0.0,1.0,93,0.00,,CLR,0.00,VWS V14.01,2013-01-08 06:58:00,
2013-01-08 02:03:00,14.2,12.6,30.28,West,265,1.0,2.0,93,0.00,,CLR,0.00,VWS V14.01,2013-01-08 07:03:00,
2013-01-08 02:08:00,13.2,11.3,30.30,West,265,0.0,1.0,92,0.00,,CLR,0.00,VWS V14.01,2013-01-08 07:08:00,
2013-01-08 02:13:00,12.5,10.6,30.30,West,264,1.0,2.0,92,0.00,,CLR,0.00,VWS V14.01,2013-01-08 07:13:00,
2013-01-08 02:18:00,11.9,10.0,30.30,West,265,0.0,1.0,92,0.00,,CLR,0.00,VWS V14.01,2013-01-08 07:18:00,
2013-01-08 02:23:00,11.1,9.2,30.30,West,265,0.0,3.0,92,0.00,,CLR,0.00,VWS V14.01,2013-01-08 07:23:00,
2013-01-08 02:28:00,11.2,9.3,30.30,West,264,2.0,2.0,92,0.00,,CLR,0.00,VWS V14.01,2013-01-08 07:28:00,
2013-01-08 02:33:00,11.0,9.1,30.30,West,265,0.0,2.0,92,0.00,,CLR,0.00,VWS V14.01,2013-01-08 07:33:00,
2013-01-08 02:38:00,11.2,9.3,30.31,West,265,1.0,3.0,92,0.00,,CLR,0.00,VWS V14.01,2013-01-08 07:38:00,
2013-01-08 02:44:00,12.6,11.0,30.31,West,265,3.0,4.0,93,0.00,,CLR,0.00,VWS V14.01,2013-01-08 07:44:00,
2013-01-08 02:49:00,14.3,12.6,30.31,West,265,3.0,4.0,93,0.00,,CLR,0.00,VWS V14.01,2013-01-08 07:49:00,
2013-01-08 02:54:00,15.6,13.9,30.30,West,265,2.0,5.0,93,0.00,,CLR,0.00,VWS V14.01,2013-01-08 07:54:00,
2013-01-08 02:59:00,14.7,13.1,30.30,West,264,2.0,2.0,93,0.00,,CLR,0.00,VWS V14.01,2013-01-08 07:59:00,
2013-01-08 03:04:00,13.7,11.8,30.30,West,261,1.0,4.0,92,0.00,,CLR,0.00,VWS V14.01,2013-01-08 08:04:00,
2013-01-08 03:09:00,13.8,12.1,30.30,West,261,0.0,2.0,93,0.00,,CLR,0.00,VWS V14.01,2013-01-08 08:09:00,
2013-01-08 03:14:00,13.9,12.2,30.30,West,261,0.0,2.0,93,0.00,,CLR,0.00,VWS V14.01,2013-01-08 08:14:00,
2013-01-08 03:19:00,13.5,11.9,30.30,West,261,0.0,1.0,93,0.00,,CLR,0.00,VWS V14.01,2013-01-08 08:19:00,
2013-01-08 03:24:00,12.8,10.9,30.30,West,261,0.0,1.0,92,0.00,,CLR,0.00,VWS V14.01,2013-01-08 08:24:00,
2013-01-08 03:29:00,12.5,10.6,30.30,West,261,0.0,0.0,92,0.00,,CLR,0.00,VWS V14.01,2013-01-08 08:29:00,
2013-01-08 03:34:00,12.1,10.2,30.30,West,261,0.0,0.0,92,0.00,,CLR,0.00,VWS V14.01,2013-01-08 08:34:00,
2013-01-08 03:39:00,11.6,9.7,30.30,West,261,0.0,3.0,92,0.00,,CLR,0.00,VWS V14.01,2013-01-08 08:39:00,
2013-01-08 03:44:00,11.1,9.2,30.30,West,261,0.0,3.0,92,0.00,,CLR,0.00,VWS V14.01,2013-01-08 08:44:00,
2013-01-08 03:49:00,10.8,8.9,30.30,West,261,0.0,0.0,92,0.00,,CLR,0.00,VWS V14.01,2013-01-08 08:49:00,
2013-01-08 03:54:00,10.6,8.7,30.30,West,261,0.0,0.0,92,0.00,,CLR,0.00,VWS V14.01,2013-01-08 08:54:00,
2013-01-08 03:59:00,10.6,8.7,30.30,West,261,0.0,0.0,92,0.00,,CLR,0.00,VWS V14.01,2013-01-08 08:59:00,
2013-01-08 04:04:00,10.7,8.8,30.30,West,261,0.0,1.0,92,0.00,,CLR,0.00,VWS V14.01,2013-01-08 09:04:00,
2013-01-08 04:09:00,10.9,9.0,30.30,West,261,0.0,2.0,92,0.00,,CLR,0.00,VWS V14.01,2013-01-08 09:09:00,
2013-01-08 04:14:00,11.1,9.2,30.30,West,261,0.0,2.0,92,0.00,,CLR,0.00,VWS V14.01,2013-01-08 09:14:00,
2013-01-08 04:19:00,11.4,9.5,30.30,West,261,0.0,3.0,92,0.00,,CLR,0.00,VWS V14.01,2013-01-08 09:19:00,
2013-01-08 04:24:00,11.5,9.6,30.31,West,261,0.0,3.0,92,0.00,,CLR,0.00,VWS V14.01,2013-01-08 09:24:00,
2013-01-08 04:29:00,11.3,9.4,30.31,West,261,0.0,0.0,92,0.00,,CLR,0.00,VWS V14.01,2013-01-08 09:29:00,
2013-01-08 04:34:00,10.5,8.6,30.31,West,261,0.0,0.0,92,0.00,,CLR,0.00,VWS V14.01,2013-01-08 09:34:00,
2013-01-08 04:39:00,10.3,8.4,30.31,West,261,0.0,1.0,92,0.00,,CLR,0.00,VWS V14.01,2013-01-08 09:39:00,
2013-01-08 04:44:00,10.3,8.4,30.31,West,261,0.0,1.0,92,0.00,,CLR,0.00,VWS V14.01,2013-01-08 09:44:00,
2013-01-08 04:49:00,10.8,8.9,30.31,West,261,3.0,3.0,92,0.00,,CLR,0.00,VWS V14.01,2013-01-08 09:49:00,
2013-01-08 04:55:00,11.7,9.8,30.31,West,261,0.0,3.0,92,0.00,,CLR,0.00,VWS V14.01,2013-01-08 09:55:00,
2013-01-08 05:00:00,11.6,9.7,30.31,West,261,0.0,3.0,92,0.00,,CLR,0.00,VWS V14.01,2013-01-08 10:00:00,
2013-01-08 05:05:00,10.6,8.5,30.31,West,261,0.0,3.0,91,0.00,,CLR,0.00,VWS V14.01,2013-01-08 10:05:00,
2013-01-08 05:10:00,10.9,9.0,30.31,West,261,0.0,1.0,92,0.00,,CLR,0.00,VWS V14.01,2013-01-08 10:10:00,
2013-01-08 05:15:00,11.0,9.1,30.31,West,261,0.0,1.0,92,0.00,,CLR,0.00,VWS V14.01,2013-01-08 10:15:00,
2013-01-08 05:20:00,11.4,9.5,30.31,West,261,0.0,0.0,92,0.00,,CLR,0.00,VWS V14.01,2013-01-08 10:20:00,
2013-01-08 05:25:00,11.6,9.7,30.32,West,261,0.0,1.0,92,0.00,,CLR,0.00,VWS V14.01,2013-01-08 10:25:00,
2013-01-08 05:30:00,11.7,9.8,30.32,West,261,0.0,2.0,92,0.00,,CLR,0.00,VWS V14.01,2013-01-08 10:30:00,
2013-01-08 05:35:00,11.2,9.3,30.32,West,261,0.0,2.0,92,0.00,,CLR,0.00,VWS V14.01,2013-01-08 10:35:00,
2013-01-08 05:40:00,11.0,9.1,30.33,West,261,1.0,2.0,92,0.00,,CLR,0.00,VWS V14.01,2013-01-08 10:40:00,
2013-01-08 05:45:00,10.8,8.7,30.33,West,261,0.0,2.0,91,0.00,,CLR,0.00,VWS V14.01,2013-01-08 10:45:00,
2013-01-08 05:50:00,10.2,8.1,30.33,West,261,0.0,0.0,91,0.00,,CLR,0.00,VWS V14.01,2013-01-08 10:50:00,
2013-01-08 05:55:00,9.7,7.6,30.33,West,261,0.0,1.0,91,0.00,,CLR,0.00,VWS V14.01,2013-01-08 10:55:00,
2013-01-08 06:00:00,9.9,7.8,30.33,West,261,2.0,3.0,91,0.00,,CLR,0.00,VWS V14.01,2013-01-08 11:00:00,
2013-01-08 06:05:00,10.2,8.3,30.33,West,261,1.0,3.0,92,0.00,,CLR,0.00,VWS V14.01,2013-01-08 11:05:00,
2013-01-08 06:10:00,9.3,7.2,30.33,West,261,3.0,3.0,91,0.00,,CLR,0.00,VWS V14.01,2013-01-08 11:10:00,
2013-01-08 06:15:00,9.7,7.6,30.33,West,261,2.0,3.0,91,0.00,,CLR,0.00,VWS V14.01,2013-01-08 11:15:00,
2013-01-08 06:20:00,10.5,8.6,30.33,WSW,246,1.0,3.0,92,0.00,,CLR,0.00,VWS V14.01,2013-01-08 11:20:00,
2013-01-08 06:25:00,9.0,6.9,30.34,WSW,246,0.0,3.0,91,0.00,,CLR,0.00,VWS V14.01,2013-01-08 11:25:00,
2013-01-08 06:30:00,9.7,7.6,30.34,WSW,242,3.0,6.0,91,0.00,,CLR,0.00,VWS V14.01,2013-01-08 11:30:00,
2013-01-08 06:35:00,11.0,8.9,30.34,West,265,3.0,7.0,91,0.00,,CLR,0.00,VWS V14.01,2013-01-08 11:35:00,
2013-01-08 06:40:00,10.3,8.2,30.35,WSW,245,7.0,7.0,91,0.00,,CLR,0.00,VWS V14.01,2013-01-08 11:40:00,
2013-01-08 06:45:00,10.7,8.6,30.35,West,266,1.0,7.0,91,0.00,,CLR,0.00,VWS V14.01,2013-01-08 11:45:00,
2013-01-08 06:50:00,11.0,8.9,30.35,West,280,2.0,7.0,91,0.00,,CLR,0.00,VWS V14.01,2013-01-08 11:50:00,
2013-01-08 06:56:00,12.3,10.4,30.35,WNW,291,3.0,9.0,92,0.00,,CLR,0.00,VWS V14.01,2013-01-08 11:56:00,
2013-01-08 07:01:00,12.4,10.5,30.35,WSW,240,4.0,7.0,92,0.00,,CLR,0.00,VWS V14.01,2013-01-08 12:01:00,
2013-01-08 07:06:00,14.7,12.8,30.35,West,275,5.0,10.0,92,0.00,,CLR,0.00,VWS V14.01,2013-01-08 12:06:00,
2013-01-08 07:11:00,17.3,15.6,30.34,WNW,285,5.0,10.0,93,0.00,,CLR,0.00,VWS V14.01,2013-01-08 12:11:00,
2013-01-08 07:16:00,17.7,16.0,30.34,WSW,245,7.0,10.0,93,0.00,,CLR,0.00,VWS V14.01,2013-01-08 12:16:00,
2013-01-08 07:21:00,17.9,16.0,30.34,WSW,247,5.0,10.0,92,0.00,,CLR,0.00,VWS V14.01,2013-01-08 12:21:00,
2013-01-08 07:26:00,18.8,16.6,30.34,WSW,252,3.0,10.0,91,0.00,,CLR,0.00,VWS V14.01,2013-01-08 12:26:00,
2013-01-08 07:31:00,17.9,15.5,30.34,SSW,207,2.0,10.0,90,0.00,,CLR,0.00,VWS V14.01,2013-01-08 12:31:00,
2013-01-08 07:36:00,17.3,14.9,30.34,SW,231,4.0,10.0,90,0.00,,CLR,0.00,VWS V14.01,2013-01-08 12:36:00,
2013-01-08 07:41:00,17.7,15.3,30.34,WSW,252,4.0,10.0,90,0.00,,CLR,0.00,VWS V14.01,2013-01-08 12:41:00,
2013-01-08 07:46:00,18.7,16.3,30.34,WSW,242,9.0,10.0,90,0.00,,CLR,0.00,VWS V14.01,2013-01-08 12:46:00,
2013-01-08 07:51:00,21.3,18.6,30.34,WSW,252,8.0,12.0,89,0.00,,CLR,0.00,VWS V14.01,2013-01-08 12:51:00,
2013-01-08 07:56:00,22.4,19.1,30.34,WSW,248,6.0,12.0,87,0.00,,CLR,0.00,VWS V14.01,2013-01-08 12:56:00,
2013-01-08 08:01:00,23.4,19.6,30.34,WSW,250,11.0,12.0,85,0.00,,CLR,0.00,VWS V14.01,2013-01-08 13:01:00,
2013-01-08 08:06:00,23.1,19.0,30.33,WSW,256,9.0,12.0,84,0.00,,CLR,0.00,VWS V14.01,2013-01-08 13:06:00,
2013-01-08 08:11:00,22.8,18.4,30.33,WSW,250,7.0,11.0,83,0.00,,CLR,0.00,VWS V14.01,2013-01-08 13:11:00,
2013-01-08 08:16:00,23.4,19.0,30.33,West,260,8.0,12.0,83,0.00,,CLR,0.00,VWS V14.01,2013-01-08 13:16:00,
2013-01-08 08:21:00,22.9,18.0,30.34,WSW,249,9.0,10.0,81,0.00,,CLR,0.00,VWS V14.01,2013-01-08 13:21:00,
2013-01-08 08:26:00,24.4,19.7,30.34,WSW,250,7.0,10.0,82,0.00,,CLR,0.00,VWS V14.01,2013-01-08 13:26:00,
2013-01-08 08:31:00,24.8,19.5,30.34,WSW,250,6.0,10.0,80,0.00,,CLR,0.00,VWS V14.01,2013-01-08 13:31:00,
2013-01-08 08:36:00,23.4,17.9,30.34,West,259,3.0,10.0,79,0.00,,CLR,0.00,VWS V14.01,2013-01-08 13:36:00,
2013-01-08 08:41:00,23.2,18.2,30.34,WSW,246,6.0,10.0,81,0.00,,CLR,0.00,VWS V14.01,2013-01-08 13:41:00,
2013-01-08 08:46:00,24.5,19.8,30.34,WSW,248,5.0,10.0,82,0.00,,CLR,0.00,VWS V14.01,2013-01-08 13:46:00,
2013-01-08 08:51:00,23.8,18.5,30.34,WSW,254,5.0,7.0,80,0.00,,CLR,0.00,VWS V14.01,2013-01-08 13:51:00,
2013-01-08 08:56:00,23.9,18.4,30.34,WSW,239,4.0,8.0,79,0.00,,CLR,0.00,VWS V14.01,2013-01-08 13:56:00,
2013-01-08 09:01:00,24.8,19.5,30.34,WSW,246,4.0,8.0,80,0.00,,CLR,0.00,VWS V14.01,2013-01-08 14:01:00,
2013-01-08 09:06:00,24.0,18.7,30.35,WSW,248,4.0,8.0,80,0.00,,CLR,0.00,VWS V14.01,2013-01-08 14:06:00,
2013-01-08 09:11:00,24.8,19.2,30.35,West,259,4.0,11.0,79,0.00,,CLR,0.00,VWS V14.01,2013-01-08 14:11:00,
2013-01-08 09:16:00,25.6,20.0,30.35,WSW,240,6.0,11.0,79,0.00,,CLR,0.00,VWS V14.01,2013-01-08 14:16:00,
2013-01-08 09:21:00,26.3,19.8,30.35,WSW,252,9.0,12.0,76,0.00,,CLR,0.00,VWS V14.01,2013-01-08 14:21:00,
2013-01-08 09:26:00,26.5,20.0,30.35,WSW,253,6.0,12.0,76,0.00,,CLR,0.00,VWS V14.01,2013-01-08 14:26:00,
2013-01-08 09:31:00,27.2,20.6,30.35,WSW,252,10.0,12.0,76,0.00,,CLR,0.00,VWS V14.01,2013-01-08 14:31:00,
2013-01-08 09:36:00,27.9,21.0,30.35,WSW,245,9.0,12.0,75,0.00,,CLR,0.00,VWS V14.01,2013-01-08 14:36:00,
2013-01-08 09:41:00,28.5,21.0,30.35,WSW,246,7.0,11.0,73,0.00,,CLR,0.00,VWS V14.01,2013-01-08 14:41:00,
2013-01-08 09:46:00,28.9,21.4,30.35,WSW,244,11.0,12.0,73,0.00,,CLR,0.00,VWS V14.01,2013-01-08 14:46:00,
2013-01-08 09:51:00,29.2,21.3,30.35,West,261,6.0,13.0,72,0.00,,CLR,0.00,VWS V14.01,2013-01-08 14:51:00,
2013-01-08 09:56:00,29.2,21.6,30.35,WSW,252,7.0,14.0,73,0.00,,CLR,0.00,VWS V14.01,2013-01-08 14:56:00,
2013-01-08 10:01:00,29.7,21.8,30.35,WSW,241,6.0,14.0,72,0.00,,CLR,0.00,VWS V14.01,2013-01-08 15:01:00,
2013-01-08 10:06:00,29.8,21.9,30.35,WSW,256,6.0,14.0,72,0.00,,CLR,0.00,VWS V14.01,2013-01-08 15:06:00,
2013-01-08 10:11:00,30.1,21.9,30.35,West,273,10.0,11.0,71,0.00,,CLR,0.00,VWS V14.01,2013-01-08 15:11:00,
2013-01-08 10:16:00,30.8,22.5,30.35,WSW,252,7.0,12.0,71,0.00,,CLR,0.00,VWS V14.01,2013-01-08 15:16:00,
2013-01-08 10:21:00,31.5,22.9,30.36,WSW,251,5.0,12.0,70,0.00,,CLR,0.00,VWS V14.01,2013-01-08 15:21:00,
2013-01-08 10:26:00,31.6,23.0,30.36,West,270,10.0,12.0,70,0.00,,CLR,0.00,VWS V14.01,2013-01-08 15:26:00,
2013-01-08 10:31:00,31.8,22.8,30.36,WSW,245,11.0,14.0,69,0.00,,CLR,0.00,VWS V14.01,2013-01-08 15:31:00,
2013-01-08 10:36:00,32.0,23.0,30.35,WSW,258,10.0,14.0,69,0.00,,CLR,0.00,VWS V14.01,2013-01-08 15:36:00,
2013-01-08 10:41:00,32.6,23.6,30.35,WSW,246,6.0,12.0,69,0.00,,CLR,0.00,VWS V14.01,2013-01-08 15:41:00,
2013-01-08 10:46:00,33.0,23.6,30.35,WSW,242,10.0,12.0,68,0.00,,CLR,0.00,VWS V14.01,2013-01-08 15:46:00,
2013-01-08 10:51:00,33.2,23.8,30.35,WSW,246,5.0,12.0,68,0.00,,CLR,0.00,VWS V14.01,2013-01-08 15:51:00,
2013-01-08 10:56:00,33.5,23.7,30.35,WSW,248,4.0,12.0,67,0.00,,CLR,0.00,VWS V14.01,2013-01-08 15:56:00,
2013-01-08 11:01:00,33.9,24.1,30.35,West,259,5.0,9.0,67,0.00,,CLR,0.00,VWS V14.01,2013-01-08 16:01:00,
2013-01-08 11:06:00,34.0,24.2,30.34,WSW,253,4.0,10.0,67,0.00,,CLR,0.00,VWS V14.01,2013-01-08 16:06:00,
2013-01-08 11:11:00,34.3,24.5,30.34,WSW,249,4.0,10.0,67,0.00,,CLR,0.00,VWS V14.01,2013-01-08 16:11:00,
2013-01-08 11:16:00,34.6,24.4,30.34,WSW,250,4.0,10.0,66,0.00,,CLR,0.00,VWS V14.01,2013-01-08 16:16:00,
2013-01-08 11:21:00,35.0,24.8,30.35,West,259,4.0,6.0,66,0.00,,CLR,0.00,VWS V14.01,2013-01-08 16:21:00,
2013-01-08 11:26:00,35.2,24.6,30.35,WSW,254,5.0,8.0,65,0.00,,CLR,0.00,VWS V14.01,2013-01-08 16:26:00,
2013-01-08 11:31:00,35.3,25.1,30.35,WSW,249,3.0,6.0,66,0.00,,CLR,0.00,VWS V14.01,2013-01-08 16:31:00,
2013-01-08 11:36:00,35.4,24.8,30.35,WSW,249,4.0,6.0,65,0.00,,CLR,0.00,VWS V14.01,2013-01-08 16:36:00,
2013-01-08 11:41:00,35.7,24.7,30.35,WSW,243,2.0,6.0,64,0.00,,CLR,0.00,VWS V14.01,2013-01-08 16:41:00,
2013-01-08 11:46:00,35.8,24.8,30.35,WSW,248,2.0,6.0,64,0.00,,CLR,0.00,VWS V14.01,2013-01-08 16:46:00,
2013-01-08 11:51:00,35.9,24.9,30.33,West,259,5.0,6.0,64,0.00,,CLR,0.00,VWS V14.01,2013-01-08 16:51:00,
2013-01-08 11:56:00,36.1,25.1,30.33,WSW,246,5.0,6.0,64,0.00,,CLR,0.00,VWS V14.01,2013-01-08 16:56:00,
2013-01-08 12:01:00,36.3,25.3,30.33,WSW,245,1.0,6.0,64,0.01,,CLR,0.01,VWS V14.01,2013-01-08 17:01:00,
2013-01-08 12:06:00,36.5,25.5,30.33,WSW,245,0.0,6.0,64,0.01,,CLR,0.01,VWS V14.01,2013-01-08 17:06:00,
2013-01-08 12:11:00,36.5,25.5,30.33,WSW,244,2.0,4.0,64,0.01,,CLR,0.01,VWS V14.01,2013-01-08 17:11:00,
2013-01-08 12:16:00,36.8,25.8,30.33,WSW,244,1.0,5.0,64,0.01,,CLR,0.01,VWS V14.01,2013-01-08 17:16:00,
2013-01-08 12:21:00,37.1,25.7,30.32,SW,234,2.0,6.0,63,0.01,,CLR,0.01,VWS V14.01,2013-01-08 17:21:00,
2013-01-08 12:26:00,37.2,25.8,30.32,South,188,5.0,8.0,63,0.01,,CLR,0.01,VWS V14.01,2013-01-08 17:26:00,
2013-01-08 12:31:00,37.4,25.6,30.32,WSW,246,3.0,8.0,62,0.01,,CLR,0.01,VWS V14.01,2013-01-08 17:31:00,
2013-01-08 12:36:00,37.8,26.0,30.32,WSW,257,5.0,10.0,62,0.01,,CLR,0.01,VWS V14.01,2013-01-08 17:36:00,
2013-01-08 12:42:00,38.4,26.1,30.32,SW,227,10.0,13.0,61,0.01,,CLR,0.01,VWS V14.01,2013-01-08 17:42:00,
2013-01-08 12:47:00,39.1,26.8,30.32,SW,229,5.0,13.0,61,0.01,,CLR,0.01,VWS V14.01,2013-01-08 17:47:00,
2013-01-08 12:52:00,39.8,27.1,30.30,West,265,13.0,14.0,60,0.01,,CLR,0.01,VWS V14.01,2013-01-08 17:52:00,
2013-01-08 12:57:00,40.4,26.8,30.30,West,261,5.0,14.0,58,0.01,,CLR,0.01,VWS V14.01,2013-01-08 17:57:00,
2013-01-08 13:02:00,40.7,26.7,30.30,WSW,258,6.0,16.0,57,0.01,,CLR,0.01,VWS V14.01,2013-01-08 18:02:00,
2013-01-08 13:07:00,40.7,27.1,30.30,WSW,253,19.0,20.0,58,0.01,,CLR,0.02,VWS V14.01,2013-01-08 18:07:00,
2013-01-08 13:12:00,40.9,26.9,30.30,SW,234,9.0,20.0,57,0.01,,CLR,0.02,VWS V14.01,2013-01-08 18:12:00,
2013-01-08 13:17:00,40.9,26.9,30.30,West,262,14.0,14.0,57,0.01,,CLR,0.02,VWS V14.01,2013-01-08 18:17:00,
2013-01-08 13:22:00,41.0,27.4,30.31,WSW,247,10.0,19.0,58,0.01,,CLR,0.02,VWS V14.01,2013-01-08 18:22:00,
2013-01-08 13:27:00,41.0,27.4,30.31,SW,236,12.0,15.0,58,0.02,,CLR,0.03,VWS V14.01,2013-01-08 18:27:00,
2013-01-08 13:32:00,41.2,27.6,30.31,West,262,13.0,18.0,58,0.02,,CLR,0.03,VWS V14.01,2013-01-08 18:32:00,
2013-01-08 13:37:00,41.3,27.6,30.32,West,262,15.0,15.0,58,0.02,,CLR,0.03,VWS V14.01,2013-01-08 18:37:00,
2013-01-08 13:42:00,41.3,28.1,30.32,SW,236,15.0,19.0,59,0.03,,CLR,0.04,VWS V14.01,2013-01-08 18:42:00,
2013-01-08 13:47:00,41.3,28.1,30.32,WSW,241,13.0,13.0,59,0.03,,CLR,0.04,VWS V14.01,2013-01-08 18:47:00,
2013-01-08 13:52:00,41.2,28.0,30.32,West,264,7.0,19.0,59,0.03,,CLR,0.04,VWS V14.01,2013-01-08 18:52:00,
2013-01-08 13:57:00,41.0,28.2,30.32,West,259,16.0,16.0,60,0.03,,CLR,0.04,VWS V14.01,2013-01-08 18:57:00,
2013-01-08 14:02:00,41.1,28.3,30.32,West,268,15.0,19.0,60,0.03,,CLR,0.04,VWS V14.01,2013-01-08 19:02:00,
2013-01-08 14:07:00,41.3,28.5,30.32,West,269,9.0,16.0,60,0.02,,CLR,0.04,VWS V14.01,2013-01-08 19:07:00,
2013-01-08 14:12:00,41.3,28.5,30.32,West,263,20.0,20.0,60,0.03,,CLR,0.05,VWS V14.01,2013-01-08 19:12:00,
2013-01-08 14:17:00,41.1,28.7,30.32,West,263,9.0,15.0,61,0.03,,CLR,0.05,VWS V14.01,2013-01-08 19:17:00,
2013-01-08 14:22:00,41.3,28.9,30.32,WSW,249,15.0,15.0,61,0.03,,CLR,0.05,VWS V14.01,2013-01-08 19:22:00,
2013-01-08 14:27:00,41.3,28.5,30.32,West,261,18.0,20.0,60,0.02,,CLR,0.05,VWS V14.01,2013-01-08 19:27:00,
2013-01-08 14:32:00,41.4,28.6,30.32,WSW,255,11.0,20.0,60,0.02,,CLR,0.05,VWS V14.01,2013-01-08 19:32:00,
2013-01-08 14:37:00,41.4,28.2,30.32,West,280,7.0,10.0,59,0.02,,CLR,0.05,VWS V14.01,2013-01-08 19:37:00,
2013-01-08 14:42:00,41.5,28.3,30.32,WSW,240,5.0,12.0,59,0.02,,CLR,0.05,VWS V14.01,2013-01-08 19:42:00,
2013-01-08 14:47:00,41.5,28.3,30.32,WSW,252,6.0,8.0,59,0.01,,CLR,0.05,VWS V14.01,2013-01-08 19:47:00,
2013-01-08 14:52:00,41.6,28.4,30.31,WSW,252,7.0,9.0,59,0.01,,CLR,0.05,VWS V14.01,2013-01-08 19:52:00,
2013-01-08 14:57:00,41.6,28.4,30.31,West,263,6.0,11.0,59,0.01,,CLR,0.05,VWS V14.01,2013-01-08 19:57:00,
2013-01-08 15:02:00,41.7,28.0,30.31,West,267,5.0,15.0,58,0.01,,CLR,0.05,VWS V14.01,2013-01-08 20:02:00,
2013-01-08 15:07:00,41.7,28.4,30.32,West,261,6.0,7.0,59,0.01,,CLR,0.05,VWS V14.01,2013-01-08 20:07:00,
2013-01-08 15:13:00,41.5,28.3,30.32,WSW,240,6.0,11.0,59,0.01,,CLR,0.05,VWS V14.01,2013-01-08 20:13:00,
2013-01-08 15:18:00,41.3,28.5,30.32,West,265,5.0,5.0,60,0.00,,CLR,0.05,VWS V14.01,2013-01-08 20:18:00,
2013-01-08 15:23:00,41.5,28.3,30.33,SW,236,8.0,9.0,59,0.00,,CLR,0.05,VWS V14.01,2013-01-08 20:23:00,
2013-01-08 15:28:00,41.8,28.1,30.33,WSW,244,9.0,12.0,58,0.00,,CLR,0.05,VWS V14.01,2013-01-08 20:28:00,
2013-01-08 15:33:00,41.7,28.0,30.33,WSW,249,10.0,15.0,58,0.00,,CLR,0.05,VWS V14.01,2013-01-08 20:33:00,
2013-01-08 15:38:00,41.8,28.1,30.33,West,271,7.0,12.0,58,0.00,,CLR,0.05,VWS V14.01,2013-01-08 20:38:00,
2013-01-08 15:43:00,42.1,28.4,30.33,West,264,6.0,17.0,58,0.00,,CLR,0.05,VWS V14.01,2013-01-08 20:43:00,
2013-01-08 15:48:00,42.1,28.4,30.33,WSW,250,5.0,7.0,58,0.00,,CLR,0.05,VWS V14.01,2013-01-08 20:48:00,
2013-01-08 15:53:00,41.8,28.1,30.34,West,275,6.0,12.0,58,0.00,,CLR,0.05,VWS V14.01,2013-01-08 20:53:00,
2013-01-08 15:58:00,41.8,28.5,30.34,WSW,242,11.0,12.0,59,0.00,,CLR,0.05,VWS V14.01,2013-01-08 20:58:00,
2013-01-08 16:03:00,41.8,28.5,30.34,WSW,255,13.0,16.0,59,0.00,,CLR,0.05,VWS V14.01,2013-01-08 21:03:00,
2013-01-08 16:08:00,41.7,28.4,30.34,WNW,286,12.0,13.0,59,0.00,,CLR,0.05,VWS V14.01,2013-01-08 21:08:00,
2013-01-08 16:13:00,41.4,28.6,30.34,SW,236,9.0,13.0,60,0.00,,CLR,0.05,VWS V14.01,2013-01-08 21:13:00,
2013-01-08 16:18:00,41.1,28.7,30.34,WSW,256,6.0,10.0,61,0.00,,CLR,0.05,VWS V14.01,2013-01-08 21:18:00,
2013-01-08 16:23:00,41.0,28.6,30.34,WSW,255,7.0,12.0,61,0.00,,CLR,0.05,VWS V14.01,2013-01-08 21:23:00,
2013-01-08 16:28:00,40.6,28.6,30.34,WSW,254,5.0,7.0,62,0.00,,CLR,0.05,VWS V14.01,2013-01-08 21:28:00,
2013-01-08 16:33:00,40.5,28.5,30.34,WSW,248,9.0,11.0,62,0.00,,CLR,0.05,VWS V14.01,2013-01-08 21:33:00,
2013-01-08 16:38:00,40.5,28.5,30.35,WSW,248,6.0,8.0,62,0.00,,CLR,0.05,VWS V14.01,2013-01-08 21:38:00,
2013-01-08 16:43:00,40.2,28.6,30.35,WSW,243,4.0,10.0,63,0.00,,CLR,0.05,VWS V14.01,2013-01-08 21:43:00,
2013-01-08 16:48:00,40.1,28.5,30.35,West,259,3.0,6.0,63,0.00,,CLR,0.05,VWS V14.01,2013-01-08 21:48:00,
2013-01-08 16:53:00,39.9,28.7,30.36,WSW,254,4.0,6.0,64,0.00,,CLR,0.05,VWS V14.01,2013-01-08 21:53:00,
2013-01-08 16:58:00,39.9,28.7,30.36,WSW,248,5.0,7.0,64,0.00,,CLR,0.05,VWS V14.01,2013-01-08 21:58:00,
2013-01-08 17:03:00,39.9,28.7,30.36,West,259,3.0,7.0,64,0.00,,CLR,0.05,VWS V14.01,2013-01-08 22:03:00,
2013-01-08 17:08:00,39.7,28.5,30.36,SW,225,2.0,6.0,64,0.00,,CLR,0.05,VWS V14.01,2013-01-08 22:08:00,
2013-01-08 17:13:00,39.5,28.4,30.36,SW,226,0.0,6.0,64,0.00,,CLR,0.05,VWS V14.01,2013-01-08 22:13:00,
2013-01-08 17:18:00,39.5,28.7,30.36,SW,226,2.0,3.0,65,0.00,,CLR,0.05,VWS V14.01,2013-01-08 22:18:00,
2013-01-08 17:23:00,39.6,28.4,30.36,WSW,246,2.0,4.0,64,0.00,,CLR,0.05,VWS V14.01,2013-01-08 22:23:00,
2013-01-08 17:28:00,39.2,28.4,30.36,WSW,246,1.0,2.0,65,0.00,,CLR,0.05,VWS V14.01,2013-01-08 22:28:00,
2013-01-08 17:33:00,38.4,28.0,30.36,WSW,247,1.0,2.0,66,0.00,,CLR,0.05,VWS V14.01,2013-01-08 22:33:00,
2013-01-08 17:38:00,38.0,28.4,30.36,WSW,247,0.0,1.0,68,0.00,,CLR,0.05,VWS V14.01,2013-01-08 22:38:00,
2013-01-08 17:43:00,38.1,28.5,30.36,WSW,247,1.0,2.0,68,0.00,,CLR,0.05,VWS V14.01,2013-01-08 22:43:00,
2013-01-08 17:48:00,38.1,28.5,30.36,WSW,247,2.0,2.0,68,0.00,,CLR,0.05,VWS V14.01,2013-01-08 22:48:00,
2013-01-08 17:53:00,37.5,28.3,30.36,WSW,247,2.0,3.0,69,0.00,,CLR,0.05,VWS V14.01,2013-01-08 22:53:00,
2013-01-08 17:58:00,36.7,28.2,30.36,West,271,1.0,1.0,71,0.00,,CLR,0.05,VWS V14.01,2013-01-08 22:58:00,
2013-01-08 18:03:00,36.1,28.0,30.36,West,271,2.0,3.0,72,0.00,,CLR,0.05,VWS V14.01,2013-01-08 23:03:00,
2013-01-08 18:08:00,36.3,28.5,30.37,West,271,1.0,2.0,73,0.00,,CLR,0.05,VWS V14.01,2013-01-08 23:08:00,
2013-01-08 18:13:00,35.6,27.8,30.37,West,271,0.0,2.0,73,0.00,,CLR,0.05,VWS V14.01,2013-01-08 23:13:00,
2013-01-08 18:18:00,35.1,28.0,30.37,West,271,0.0,0.0,75,0.00,,CLR,0.05,VWS V14.01,2013-01-08 23:18:00,
2013-01-08 18:23:00,34.5,27.4,30.36,West,271,0.0,1.0,75,0.00,,CLR,0.05,VWS V14.01,2013-01-08 23:23:00,
2013-01-08 18:28:00,34.1,27.7,30.36,West,267,3.0,3.0,77,0.00,,CLR,0.05,VWS V14.01,2013-01-08 23:28:00,
2013-01-08 18:33:00,33.9,27.5,30.36,West,267,2.0,3.0,77,0.00,,CLR,0.05,VWS V14.01,2013-01-08 23:33:00,
2013-01-08 18:38:00,33.5,27.4,30.36,West,268,0.0,2.0,78,0.00,,CLR,0.05,VWS V14.01,2013-01-08 23:38:00,
2013-01-08 18:43:00,33.3,27.5,30.36,West,268,1.0,2.0,79,0.00,,CLR,0.05,VWS V14.01,2013-01-08 23:43:00,
2013-01-08 18:48:00,33.2,27.4,30.36,West,268,0.0,1.0,79,0.00,,CLR,0.05,VWS V14.01,2013-01-08 23:48:00,
2013-01-08 18:53:00,33.6,27.8,30.36,West,267,2.0,3.0,79,0.00,,CLR,0.05,VWS V14.01,2013-01-08 23:53:00,
2013-01-08 18:58:00,33.2,27.1,30.36,West,267,2.0,3.0,78,0.00,,CLR,0.05,VWS V14.01,2013-01-08 23:58:00,
2013-01-08 19:03:00,32.4,26.6,30.36,West,267,2.0,3.0,79,0.00,,CLR,0.05,VWS V14.01,2013-01-09 00:03:00,
2013-01-08 19:08:00,31.7,26.5,30.36,West,267,2.0,3.0,81,0.00,,CLR,0.05,VWS V14.01,2013-01-09 00:08:00,
2013-01-08 19:13:00,31.6,26.8,30.36,West,267,2.0,3.0,82,0.00,,CLR,0.05,VWS V14.01,2013-01-09 00:13:00,
2013-01-08 19:18:00,31.5,26.6,30.36,West,267,2.0,3.0,82,0.00,,CLR,0.05,VWS V14.01,2013-01-09 00:18:00,
2013-01-08 19:23:00,31.3,26.5,30.34,West,267,2.0,3.0,82,0.00,,CLR,0.05,VWS V14.01,2013-01-09 00:23:00,
2013-01-08 19:28:00,31.2,26.4,30.34,WSW,248,3.0,3.0,82,0.00,,CLR,0.05,VWS V14.01,2013-01-09 00:28:00,
2013-01-08 19:33:00,31.1,26.5,30.34,WSW,254,3.0,4.0,83,0.00,,CLR,0.05,VWS V14.01,2013-01-09 00:33:00,
2013-01-08 19:38:00,30.6,26.1,30.34,WSW,254,4.0,4.0,83,0.00,,CLR,0.05,VWS V14.01,2013-01-09 00:38:00,
2013-01-08 19:43:00,30.5,26.0,30.34,West,267,3.0,4.0,83,0.00,,CLR,0.05,VWS V14.01,2013-01-09 00:43:00,
2013-01-08 19:48:00,30.5,26.2,30.34,West,261,4.0,4.0,84,0.00,,CLR,0.05,VWS V14.01,2013-01-09 00:48:00,
2013-01-08 19:53:00,30.7,26.5,30.35,West,261,3.0,4.0,84,0.00,,CLR,0.05,VWS V14.01,2013-01-09 00:53:00,
2013-01-08 19:59:00,30.7,26.2,30.35,West,261,3.0,3.0,83,0.00,,CLR,0.05,VWS V14.01,2013-01-09 00:59:00,
2013-01-08 20:04:00,30.4,25.9,30.35,West,261,1.0,3.0,83,0.00,,CLR,0.05,VWS V14.01,2013-01-09 01:04:00,
2013-01-08 20:09:00,30.1,25.9,30.35,West,261,0.0,1.0,84,0.00,,CLR,0.05,VWS V14.01,2013-01-09 01:09:00,
2013-01-08 20:14:00,29.6,25.4,30.35,West,261,0.0,1.0,84,0.00,,CLR,0.05,VWS V14.01,2013-01-09 01:14:00,
2013-01-08 20:19:00,29.1,24.9,30.35,West,261,0.0,1.0,84,0.00,,CLR,0.05,VWS V14.01,2013-01-09 01:19:00,
2013-01-08 20:24:00,28.8,24.9,30.35,West,261,0.0,1.0,85,0.00,,CLR,0.05,VWS V14.01,2013-01-09 01:24:00,
2013-01-08 20:29:00,28.3,24.7,30.35,West,261,0.0,1.0,86,0.00,,CLR,0.05,VWS V14.01,2013-01-09 01:29:00,
2013-01-08 20:34:00,28.2,24.8,30.35,West,261,0.0,1.0,87,0.00,,CLR,0.05,VWS V14.01,2013-01-09 01:34:00,
2013-01-08 20:39:00,27.8,24.4,30.35,West,261,0.0,1.0,87,0.00,,CLR,0.05,VWS V14.01,2013-01-09 01:39:00,
2013-01-08 20:44:00,27.8,24.7,30.35,West,261,0.0,1.0,88,0.00,,CLR,0.05,VWS V14.01,2013-01-09 01:44:00,
2013-01-08 20:49:00,27.9,24.8,30.35,West,261,0.0,0.0,88,0.00,,CLR,0.05,VWS V14.01,2013-01-09 01:49:00,
2013-01-08 20:54:00,28.3,25.2,30.36,West,261,2.0,2.0,88,0.00,,CLR,0.05,VWS V14.01,2013-01-09 01:54:00,
2013-01-08 20:59:00,28.1,25.0,30.36,West,261,2.0,4.0,88,0.00,,CLR,0.05,VWS V14.01,2013-01-09 01:59:00,
2013-01-08 21:04:00,28.3,25.2,30.36,West,261,1.0,4.0,88,0.00,,CLR,0.05,VWS V14.01,2013-01-09 02:04:00,
2013-01-08 21:09:00,28.2,25.4,30.35,West,261,1.0,2.0,89,0.00,,CLR,0.05,VWS V14.01,2013-01-09 02:09:00,
2013-01-08 21:14:00,28.2,25.4,30.35,West,261,1.0,2.0,89,0.00,,CLR,0.05,VWS V14.01,2013-01-09 02:14:00,
2013-01-08 21:19:00,28.0,25.2,30.35,West,261,2.0,2.0,89,0.00,,CLR,0.05,VWS V14.01,2013-01-09 02:19:00,
2013-01-08 21:24:00,28.3,25.5,30.34,West,261,1.0,3.0,89,0.00,,CLR,0.05,VWS V14.01,2013-01-09 02:24:00,
2013-01-08 21:29:00,28.9,26.1,30.34,West,261,0.0,1.0,89,0.00,,CLR,0.05,VWS V14.01,2013-01-09 02:29:00,
2013-01-08 21:34:00,28.7,25.6,30.34,West,261,1.0,2.0,88,0.00,,CLR,0.05,VWS V14.01,2013-01-09 02:34:00,
2013-01-08 21:39:00,28.0,24.9,30.34,West,261,0.0,0.0,88,0.00,,CLR,0.05,VWS V14.01,2013-01-09 02:39:00,
2013-01-08 21:44:00,27.8,24.7,30.34,West,261,1.0,1.0,88,0.00,,CLR,0.05,VWS V14.01,2013-01-09 02:44:00,
2013-01-08 21:49:00,27.8,24.7,30.34,West,261,0.0,2.0,88,0.00,,CLR,0.05,VWS V14.01,2013-01-09 02:49:00,
2013-01-08 21:54:00,27.5,24.4,30.34,West,261,0.0,3.0,88,0.00,,CLR,0.05,VWS V14.01,2013-01-09 02:54:00,
2013-01-08 21:59:00,26.7,23.6,30.34,West,261,1.0,2.0,88,0.00,,CLR,0.05,VWS V14.01,2013-01-09 02:59:00,
2013-01-08 22:04:00,27.0,24.2,30.34,West,261,1.0,3.0,89,0.00,,CLR,0.05,VWS V14.01,2013-01-09 03:04:00,
2013-01-08 22:09:00,27.0,24.2,30.34,West,261,0.0,2.0,89,0.00,,CLR,0.05,VWS V14.01,2013-01-09 03:09:00,
2013-01-08 22:14:00,27.1,24.6,30.34,West,261,1.0,3.0,90,0.00,,CLR,0.05,VWS V14.01,2013-01-09 03:14:00,
2013-01-08 22:19:00,27.4,24.9,30.34,West,261,2.0,3.0,90,0.00,,CLR,0.05,VWS V14.01,2013-01-09 03:19:00,
2013-01-08 22:24:00,27.4,24.9,30.33,West,261,2.0,3.0,90,0.00,,CLR,0.05,VWS V14.01,2013-01-09 03:24:00,
2013-01-08 22:29:00,27.6,25.1,30.33,West,261,3.0,3.0,90,0.00,,CLR,0.05,VWS V14.01,2013-01-09 03:29:00,
2013-01-08 22:34:00,27.5,24.7,30.33,West,261,1.0,4.0,89,0.00,,CLR,0.05,VWS V14.01,2013-01-09 03:34:00,
2013-01-08 22:40:00,27.4,24.6,30.33,West,261,2.0,4.0,89,0.00,,CLR,0.05,VWS V14.01,2013-01-09 03:40:00,
2013-01-08 22:45:00,26.8,24.0,30.33,West,261,1.0,5.0,89,0.00,,CLR,0.05,VWS V14.01,2013-01-09 03:45:00,
2013-01-08 22:50:00,25.8,22.7,30.33,West,261,1.0,2.0,88,0.00,,CLR,0.05,VWS V14.01,2013-01-09 03:50:00,
2013-01-08 22:55:00,25.1,22.3,30.34,West,261,0.0,2.0,89,0.00,,CLR,0.05,VWS V14.01,2013-01-09 03:55:00,
2013-01-08 23:00:00,24.5,22.0,30.34,West,261,1.0,2.0,90,0.00,,CLR,0.05,VWS V14.01,2013-01-09 04:00:00,
2013-01-08 23:05:00,23.5,21.0,30.34,West,261,2.0,2.0,90,0.00,,CLR,0.05,VWS V14.01,2013-01-09 04:05:00,
2013-01-08 23:10:00,25.7,23.7,30.34,West,261,2.0,3.0,92,0.00,,CLR,0.05,VWS V14.01,2013-01-09 04:10:00,
2013-01-08 23:15:00,26.0,23.7,30.34,West,261,0.0,3.0,91,0.00,,CLR,0.05,VWS V14.01,2013-01-09 04:15:00,
2013-01-08 23:20:00,25.4,23.1,30.34,West,261,0.0,2.0,91,0.00,,CLR,0.05,VWS V14.01,2013-01-09 04:20:00,
2013-01-08 23:25:00,24.9,22.6,30.31,West,261,0.0,2.0,91,0.00,,CLR,0.05,VWS V14.01,2013-01-09 04:25:00,
2013-01-08 23:30:00,25.3,23.0,30.31,West,261,0.0,0.0,91,0.00,,CLR,0.05,VWS V14.01,2013-01-09 04:30:00,
2013-01-08 23:35:00,25.5,23.5,30.31,West,261,0.0,1.0,92,0.00,,CLR,0.05,VWS V14.01,2013-01-09 04:35:00,
2013-01-08 23:40:00,25.1,22.9,30.31,West,261,0.0,0.0,91,0.00,,CLR,0.05,VWS V14.01,2013-01-09 04:40:00,
2013-01-08 23:45:00,24.9,22.6,30.31,West,261,0.0,1.0,91,0.00,,CLR,0.05,VWS V14.01,2013-01-09 04:45:00,
2013-01-08 23:50:00,24.3,22.1,30.31,West,261,0.0,0.0,91,0.00,,CLR,0.05,VWS V14.01,2013-01-09 04:50:00,
2013-01-08 23:55:00,24.1,22.1,30.32,West,261,0.0,1.0,92,0.00,,CLR,0.05,VWS V14.01,2013-01-09 04:55:00,